[[{"header":{"parameterUnit":"m.s-1","parameterCategory":1,"la1":30.2991,"la2":30.254,"lo1":-89.0895,"lo2":-89.0444,"dy":0.0017,"dx":0.0017,"nx":28,"ny":28,"refTime":"2023-08-14T03:00:00:Z","depth":0,"parameterNumber":2,"parameterNumberName":"U-component_of_WINDS"},"data":[0,0,0,0,0,0,0,0,0,0,0,0,0,0,0,0,0,0,0,0,0,0,0,0,0,0,0,0,0,0,0,0,0,0,0,0,0,0,0,0,0,0,0,0,0,0,0,0,0,0,0,0,0,0,0,0,0,0,4.8182,4.8183,0,4.8297,4.8299,4.83,4.8247,4.8244,4.8241,4.8238,4.8357,4.8363,4.8368,0,0,0,0,0,0,0,0,0,0,0,0,0,4.7913,4.7918,4.8181,4.8183,4.8184,4.8297,4.8299,4.83,4.8247,4.8244,4.824,4.8237,4.8355,4.8362,4.8369,0,0,0,0,0,0,0,0,0,0,0,0,0,4.8029,4.792,4.8181,4.8172,4.8172,4.8297,4.8299,4.8301,4.8248,4.8244,4.8239,4.8235,4.8353,4.8361,4.837,4.8511,0,0,4.8397,4.8401,0,0,0,0,0,0,0,0,4.8023,4.8039,4.8172,4.8172,4.8173,4.8253,4.8247,4.8371,4.8249,4.8219,4.8238,4.8233,4.8326,4.8337,4.8368,4.8516,4.8522,4.8398,4.8403,4.8407,4.8409,0,0,0,0,0,0,0,4.8015,4.8034,4.8227,4.8174,4.8174,4.8161,4.8173,4.827,4.8296,4.8221,4.8218,4.8232,4.8325,4.836,4.837,4.8523,4.8397,4.8405,4.841,4.8414,4.8789,4.8794,0,0,0,0,0,0,4.8007,4.8027,4.8224,4.8231,4.8086,4.8169,4.8182,4.8232,4.8294,4.83,4.8236,4.8229,4.8347,4.836,4.8374,4.854,4.8407,4.8415,4.842,4.8785,4.8791,4.8796,0,0,0,0,0,0,4.8001,4.8025,4.8219,4.8128,4.8152,4.8178,4.8234,4.8236,4.827,4.8305,4.8309,4.8266,4.8344,4.8362,4.8476,4.8544,4.8419,4.8427,4.8779,4.8787,4.8793,4.8876,0,0,0,0,0,0,4.7994,4.8023,4.8078,4.813,4.8157,4.832,4.8239,4.8242,4.8286,4.8278,4.8335,4.834,4.8342,4.8464,4.8485,4.8554,4.8434,4.8773,4.8783,4.8791,4.8867,4.8885,4.89,0,0,0,0,0,4.7984,4.8097,4.8081,4.8105,4.8226,4.8324,4.8339,4.8339,4.8291,4.8345,4.8367,4.8338,4.8534,4.8476,4.85,4.8572,4.8769,4.878,4.879,4.886,4.8881,4.8899,0,0,0,0,0,0,4.8053,4.8104,4.8086,4.8219,4.8268,4.8315,4.8383,4.8363,4.8426,4.8416,4.8413,4.8427,4.8544,4.857,4.8505,4.871,4.8644,4.866,4.8688,4.8709,4.8725,4.8715,4.8441,0,0,0,0,0,4.8083,4.816,4.82,4.8313,4.8339,4.8357,4.84,4.8395,4.8445,4.8466,4.8496,4.8546,4.8617,4.8665,4.8734,4.8871,4.8881,4.8932,4.8949,4.8962,4.8975,4.9046,4.9068,4.883,4.883,4.883,0,0,4.8147,4.8185,4.8233,4.8328,4.8365,4.8442,4.8375,4.8461,4.8517,4.8479,4.8587,4.8612,4.8667,4.8792,4.8849,4.8817,4.9043,4.8975,4.8986,4.8991,4.9059,4.9081,4.9101,4.8838,4.8836,4.8835,0,0,4.8303,4.834,4.8437,4.8475,4.8531,4.8542,4.8566,4.8616,4.863,4.8739,4.8711,4.8779,4.8904,4.8943,4.8979,4.9147,4.9121,4.917,4.9255,4.9324,4.9343,4.9359,4.9416,4.9436,4.9183,4.9184,4.9184,0,4.8375,4.8491,4.8489,4.8576,4.8618,4.8586,4.8682,4.872,4.8796,4.8825,4.8788,4.8942,4.8977,4.9109,4.915,4.9182,4.9206,4.9162,4.934,4.9357,4.9372,4.9426,4.9448,4.9189,4.9188,4.9188,4.9187,0,4.8575,4.8656,4.8727,4.88,4.885,4.8942,4.8953,4.9003,4.8994,4.9009,4.9119,4.916,4.9234,4.9266,4.9259,4.9397,4.9375,4.934,4.9273,4.94,4.945,4.9471,4.9196,4.9195,4.9193,4.9192,0,0,4.8777,4.8846,4.8872,4.8903,4.8962,4.9024,4.9114,4.9186,4.9228,4.9282,4.9355,4.946,4.9427,4.9468,4.9465,4.9526,4.9652,4.9483,4.9484,4.951,4.9803,4.9827,4.9851,4.9636,4.964,4.9644,4.9797,0,4.8933,4.909,4.909,4.9233,4.9306,4.9276,4.9354,4.9398,4.9414,4.9477,4.9495,4.9568,4.9521,4.9544,4.9604,4.9624,4.971,4.9614,4.9702,4.9705,4.9686,4.9878,4.9904,5.0047,4.9817,4.9821,4.9823,0,4.9138,4.9196,4.9346,4.9392,4.9422,4.9492,4.9557,4.9619,4.9667,4.9674,4.9719,4.9706,4.9795,4.9728,4.9849,4.9783,4.982,4.9835,4.9841,4.9847,4.977,4.9886,5.0093,5.0113,4.9855,4.9852,4.985,0,4.9265,4.9382,4.9486,4.9514,4.9571,4.962,4.9645,4.969,4.9732,4.9789,4.9816,4.9883,4.9919,4.9971,4.9975,4.9926,5.0096,5.003,5.0103,5.0103,5.0138,5.0135,5.035,5.0167,5.0167,5.0166,5.0166,0,4.9438,4.9531,4.9543,4.9607,4.9709,4.9708,4.9808,4.983,4.9869,4.9935,4.9915,4.9977,4.9981,5.0045,5.005,5.0147,5.0165,5.0171,5.0171,5.0172,5.017,5.0193,5.0182,5.0172,5.0171,5.017,5.0169,0,4.9597,4.961,4.972,4.9764,4.9777,4.985,4.9887,4.9947,4.9961,5.0045,5.0065,5.0086,5.016,5.017,5.0257,5.026,5.0376,5.0367,5.0359,5.0357,5.0428,5.042,5.0663,5.0693,5.0493,5.0495,5.0497,0,4.9706,4.9776,4.9826,4.9869,4.9897,4.9967,5.0009,5.0011,5.0056,5.0115,5.0167,5.0239,5.0296,5.0415,5.0438,5.0504,5.0494,5.0574,5.0503,5.0501,5.0491,5.0485,5.049,5.0587,5.0589,5.0591,5.0593,0,4.9895,4.9897,4.996,5.0024,5.0075,5.0126,5.0173,5.021,5.0217,5.0268,5.0343,5.0387,5.0475,5.0545,5.061,5.0635,5.0615,5.0615,5.0635,5.0635,5.0626,5.0628,5.0393,5.0609,5.0607,5.0606,5.0605,5.0605,5.003,5.0089,5.0134,5.0203,5.0239,5.0283,5.034,5.036,5.0423,5.0493,5.0491,5.0572,5.0616,5.0701,5.0731,5.0794,5.0767,5.0797,5.0803,5.081,5.0815,5.0618,5.0806,5.0806,5.0805,5.0805,5.0805,0,5.0216,5.0242,5.0306,5.0372,5.0426,5.0403,5.0453,5.05,5.0571,5.0615,5.067,5.0755,5.0823,5.085,5.0916,5.0961,5.0953,5.0978,5.0973,5.0978,5.0837,5.0812,5.0983,5.0983,5.0983,5.0983,5.0983,5.0983,5.0318,5.0416,5.0423,5.0538,5.0564,5.0643,5.0674,5.0714,5.0747,5.0842,5.0898,5.0916,5.0952,5.102,5.108,5.1086,5.111,5.1139,5.114,5.1007,5.0989,5.0972,5.0948,5.1145,5.1145,5.1276,5.1277,5.1278]},{"header":{"parameterUnit":"m.s-1","parameterCategory":1,"la1":30.2991,"la2":30.254,"lo1":-89.0895,"lo2":-89.0444,"dy":0.0017,"dx":0.0017,"nx":28,"ny":28,"refTime":"2023-08-14T03:00:00:Z","depth":0,"parameterNumber":3,"parameterNumberName":"V-component_of_WINDS"},"data":[0,0,0,0,0,0,0,0,0,0,0,0,0,0,0,0,0,0,0,0,0,0,0,0,0,0,0,0,0,0,0,0,0,0,0,0,0,0,0,0,0,0,0,0,0,0,0,0,0,0,0,0,0,0,0,0,0,0,3.08,3.0801,0,3.0876,3.0877,3.0878,3.087,3.0868,3.0867,3.0866,3.094,3.0943,3.0946,0,0,0,0,0,0,0,0,0,0,0,0,0,3.0645,3.0648,3.08,3.0801,3.0802,3.0876,3.0877,3.0878,3.087,3.0868,3.0867,3.0866,3.0939,3.0942,3.0946,0,0,0,0,0,0,0,0,0,0,0,0,0,3.0715,3.0649,3.08,3.0807,3.0809,3.0876,3.0877,3.0878,3.087,3.0868,3.0867,3.0865,3.0938,3.0942,3.0947,3.101,0,0,3.0961,3.0963,0,0,0,0,0,0,0,0,3.0711,3.0721,3.0805,3.0807,3.0809,3.0862,3.0849,3.0922,3.0871,3.0847,3.0866,3.0864,3.0915,3.0921,3.0939,3.1014,3.1017,3.0961,3.0964,3.0966,3.0967,0,0,0,0,0,0,0,3.0707,3.0718,3.083,3.0806,3.0808,3.0805,3.0813,3.0863,3.089,3.0849,3.0848,3.0857,3.0915,3.0935,3.0941,3.1018,3.0961,3.0965,3.0968,3.097,3.1147,3.1149,0,0,0,0,0,0,3.0701,3.0714,3.0828,3.0832,3.0755,3.0809,3.0818,3.0846,3.0889,3.0894,3.0859,3.0857,3.0928,3.0936,3.0943,3.102,3.0966,3.097,3.0973,3.1145,3.1147,3.1149,0,0,0,0,0,0,3.0697,3.0711,3.0825,3.0773,3.0787,3.0814,3.0845,3.0849,3.0868,3.0897,3.0901,3.0874,3.0927,3.0937,3.0994,3.1022,3.0972,3.0976,3.1143,3.1146,3.1148,3.1174,0,0,0,0,0,0,3.0693,3.071,3.0735,3.0774,3.079,3.0875,3.0847,3.0851,3.0877,3.0875,3.0912,3.0917,3.0926,3.0987,3.0998,3.1028,3.098,3.114,3.1144,3.1147,3.1171,3.1177,3.1183,0,0,0,0,0,3.0687,3.0739,3.0737,3.0751,3.0823,3.0877,3.0886,3.0897,3.0879,3.0904,3.0922,3.0916,3.1017,3.0993,3.1005,3.1037,3.1138,3.1143,3.1147,3.1168,3.1176,3.1183,0,0,0,0,0,0,3.0702,3.0744,3.0742,3.0808,3.0839,3.0875,3.0908,3.0905,3.0941,3.0938,3.0948,3.0957,3.1014,3.1031,3.1003,3.11,3.1075,3.1082,3.1087,3.1095,3.1101,3.1095,3.0984,0,0,0,0,0,3.0714,3.0755,3.0789,3.0844,3.086,3.0881,3.0905,3.0911,3.0942,3.0955,3.0978,3.1008,3.1046,3.1071,3.1109,3.1173,3.118,3.1201,3.1207,3.1212,3.1218,3.1252,3.1261,3.1164,3.1164,3.1164,0,0,3.0737,3.0765,3.079,3.0848,3.0872,3.0914,3.0892,3.0937,3.0967,3.0962,3.1017,3.1034,3.1068,3.1129,3.1156,3.1145,3.1246,3.1218,3.1221,3.1225,3.1257,3.1266,3.1274,3.1167,3.1166,3.1166,0,0,3.08,3.0826,3.0875,3.09,3.0937,3.0951,3.0963,3.0999,3.1011,3.1066,3.1063,3.1098,3.1165,3.1189,3.121,3.1281,3.1275,3.1293,3.1325,3.1358,3.1365,3.1372,3.1396,3.1405,3.1298,3.1298,3.1298,0,3.0824,3.0888,3.0899,3.0945,3.0969,3.0967,3.1014,3.1038,3.1085,3.1102,3.1088,3.1171,3.1194,3.1259,3.1277,3.1294,3.1306,3.1288,3.1364,3.1371,3.1377,3.14,3.1409,3.13,3.13,3.13,3.13,0,3.0914,3.0958,3.0992,3.1039,3.1067,3.1114,3.1131,3.1158,3.1161,3.1175,3.123,3.1258,3.13,3.1316,3.1319,3.1381,3.1373,3.1362,3.1337,3.1388,3.141,3.1419,3.1303,3.1302,3.1302,3.1301,0,0,3.099,3.1042,3.1054,3.1075,3.1116,3.1149,3.1194,3.1237,3.1259,3.1291,3.1329,3.1385,3.1374,3.1398,3.1403,3.1432,3.1485,3.1417,3.1418,3.1428,3.1554,3.1562,3.1572,3.1482,3.1484,3.1485,3.1551,0,3.1056,3.1138,3.1149,3.1221,3.126,3.1258,3.1297,3.1326,3.134,3.1375,3.139,3.1429,3.1413,3.1427,3.1456,3.1473,3.1511,3.1468,3.1515,3.1517,3.1506,3.1584,3.1592,3.1653,3.156,3.1561,3.1562,0,3.1145,3.1181,3.1257,3.1291,3.1308,3.1344,3.1382,3.1416,3.1447,3.1456,3.1482,3.1484,3.1528,3.1502,3.1563,3.1534,3.1554,3.1565,3.1568,3.1572,3.1542,3.1589,3.1673,3.1681,3.1576,3.1575,3.1574,0,3.1191,3.1258,3.1312,3.133,3.1372,3.1396,3.1414,3.1444,3.1469,3.1502,3.1517,3.1555,3.1576,3.1604,3.1615,3.1595,3.1675,3.165,3.1682,3.1682,3.1699,3.1697,3.1786,3.1713,3.1713,3.1712,3.1712,0,3.1264,3.131,3.1333,3.1366,3.1417,3.1428,3.1478,3.1495,3.1522,3.1556,3.1557,3.1589,3.1602,3.1636,3.1645,3.1693,3.1703,3.1709,3.1711,3.1709,3.1708,3.1722,3.1717,3.1715,3.1714,3.1714,3.1713,0,3.1324,3.1341,3.1399,3.1434,3.1444,3.148,3.1509,3.154,3.1554,3.1598,3.1609,3.163,3.167,3.1684,3.1733,3.1738,3.1794,3.1793,3.1784,3.1784,3.1815,3.1811,3.1914,3.1928,3.1847,3.1847,3.1848,0,3.1369,3.1404,3.1443,3.1467,3.1486,3.1525,3.155,3.1562,3.1587,3.1625,3.1651,3.1691,3.1724,3.1788,3.1807,3.1843,3.1842,3.1875,3.1847,3.1844,3.1841,3.1838,3.1841,3.188,3.1881,3.1882,3.1882,0,3.1446,3.1453,3.1489,3.1529,3.1558,3.159,3.162,3.1639,3.1655,3.1684,3.1725,3.175,3.18,3.1839,3.1876,3.1893,3.189,3.1891,3.19,3.1898,3.1891,3.1894,3.1797,3.1889,3.1888,3.1888,3.1887,3.1887,3.1499,3.153,3.1562,3.1602,3.1626,3.1654,3.1685,3.1703,3.1738,3.178,3.1785,3.1829,3.1858,3.1908,3.1926,3.196,3.195,3.1964,3.1967,3.197,3.1972,3.1887,3.1967,3.1967,3.1966,3.1966,3.1966,0,3.1576,3.1596,3.1633,3.1675,3.1706,3.1702,3.1735,3.1761,3.18,3.1828,3.186,3.1907,3.1945,3.1967,3.2004,3.2026,3.2026,3.2036,3.2034,3.2037,3.1979,3.1967,3.2035,3.2035,3.2035,3.2035,3.2035,3.2035,3.1619,3.1671,3.1681,3.1744,3.1764,3.1808,3.1827,3.1852,3.1874,3.1927,3.1959,3.1973,3.1998,3.2037,3.2071,3.2076,3.2089,3.21,3.2104,3.2049,3.2042,3.2035,3.2023,3.2103,3.2103,3.216,3.216,3.2161]}]]